2CUTH EGPT-EGBS

Flight info

Callsign 2CUTH
Flight time N/A
Altitude 3500
Route VFR
Aircraft BE36/L-SBDFGRY/S

Departure

Time 2026-04-20 17:47
Airport Perth/Scone Airport (EGPT)

Arrival

Time N/A
Airport Shobdon Airfield (EGBS)
Time Latitude Longitude Altitude Speed Heading
2026-04-20 17:41 56.43684 -3.37243 394 ft 0 kts 309°
2026-04-20 17:45 56.43686 -3.37245 394 ft 2 kts 326°
2026-04-20 17:45 56.43698 -3.37290 393 ft 5 kts 252°
2026-04-20 17:45 56.43723 -3.37347 393 ft 7 kts 336°
2026-04-20 17:45 56.43763 -3.37395 394 ft 7 kts 278°
2026-04-20 17:46 56.43762 -3.37525 393 ft 16 kts 269°
2026-04-20 17:46 56.43775 -3.37681 394 ft 5 kts 233°
2026-04-20 17:46 56.43760 -3.37667 394 ft 0 kts 86°
2026-04-20 17:47 56.43765 -3.37374 394 ft 57 kts 89°
2026-04-20 17:47 56.43807 -3.36437 536 ft 84 kts 85°
2026-04-20 17:47 56.43900 -3.35287 789 ft 98 kts 85°
2026-04-20 17:47 56.43896 -3.34052 1077 ft 100 kts 90°
2026-04-20 17:48 56.43887 -3.32773 1382 ft 101 kts 99°
2026-04-20 17:48 56.43395 -3.31972 1695 ft 108 kts 171°
2026-04-20 17:48 56.42760 -3.32715 1976 ft 121 kts 242°
2026-04-20 17:48 56.42427 -3.34103 2303 ft 120 kts 242°
2026-04-20 17:49 56.42076 -3.35486 2577 ft 122 kts 244°
2026-04-20 17:49 56.41725 -3.36856 2869 ft 122 kts 244°
2026-04-20 17:49 56.41353 -3.38259 3168 ft 123 kts 244°
2026-04-20 17:49 56.40981 -3.39648 3461 ft 123 kts 243°
2026-04-20 17:50 56.40665 -3.41067 3732 ft 124 kts 244°
2026-04-20 17:50 56.40068 -3.42140 3976 ft 125 kts 216°
2026-04-20 17:50 56.39342 -3.43220 4000 ft 145 kts 217°
2026-04-20 17:50 56.38502 -3.44371 4001 ft 157 kts 214°
2026-04-20 17:51 56.37600 -3.45559 3999 ft 163 kts 214°
2026-04-20 17:51 56.36675 -3.46769 3996 ft 165 kts 213°
2026-04-20 17:51 56.35741 -3.47986 3999 ft 166 kts 213°
2026-04-20 17:51 56.34801 -3.49214 3996 ft 167 kts 213°
2026-04-20 17:52 56.33856 -3.50450 3994 ft 167 kts 213°
2026-04-20 17:52 56.32914 -3.51681 3995 ft 167 kts 214°
2026-04-20 17:52 56.31972 -3.52905 3993 ft 167 kts 213°
2026-04-20 17:52 56.31030 -3.54135 3991 ft 167 kts 214°
2026-04-20 17:53 56.30084 -3.55368 3995 ft 168 kts 213°
2026-04-20 17:53 56.29134 -3.56605 3991 ft 168 kts 214°
2026-04-20 17:53 56.28180 -3.57848 3991 ft 170 kts 214°
2026-04-20 17:53 56.27220 -3.59097 3989 ft 170 kts 214°
2026-04-20 17:54 56.26274 -3.60329 3990 ft 170 kts 213°
2026-04-20 17:54 56.25310 -3.61580 3986 ft 171 kts 213°
2026-04-20 17:54 56.24348 -3.62831 3986 ft 171 kts 214°
2026-04-20 17:54 56.23386 -3.64080 3983 ft 169 kts 214°
2026-04-20 17:55 56.22439 -3.65305 3986 ft 167 kts 212°
2026-04-20 17:55 56.21495 -3.66529 3987 ft 168 kts 212°
2026-04-20 17:55 56.20548 -3.67762 3985 ft 168 kts 213°
2026-04-20 17:55 56.19603 -3.68990 3981 ft 167 kts 213°
2026-04-20 17:56 56.18672 -3.70191 3987 ft 167 kts 213°
2026-04-20 17:56 56.17726 -3.71422 3983 ft 169 kts 213°
2026-04-20 17:56 56.16773 -3.72665 3991 ft 169 kts 213°
2026-04-20 17:56 56.15817 -3.73903 3986 ft 170 kts 213°
2026-04-20 17:57 56.14854 -3.75154 3987 ft 170 kts 212°
2026-04-20 17:57 56.13897 -3.76405 3986 ft 169 kts 213°
2026-04-20 17:57 56.12947 -3.77651 3984 ft 169 kts 213°
2026-04-20 17:57 56.11929 -3.78577 3979 ft 162 kts 181°
2026-04-20 17:58 56.10831 -3.78432 3925 ft 162 kts 168°
2026-04-20 17:58 56.09704 -3.78169 3852 ft 164 kts 168°
2026-04-20 17:58 56.08567 -3.77901 3776 ft 165 kts 168°
2026-04-20 17:58 56.07424 -3.77632 3710 ft 166 kts 167°
2026-04-20 17:59 56.06284 -3.77324 3631 ft 165 kts 166°
2026-04-20 17:59 56.05154 -3.76991 3551 ft 164 kts 166°
2026-04-20 17:59 56.04026 -3.76675 3474 ft 164 kts 167°
2026-04-20 17:59 56.02895 -3.76363 3392 ft 165 kts 166°
2026-04-20 18:00 56.01771 -3.76054 3384 ft 162 kts 166°
2026-04-20 18:00 56.00664 -3.75748 3382 ft 161 kts 166°
2026-04-20 18:00 55.99563 -3.75447 3381 ft 160 kts 166°
2026-04-20 18:00 55.98466 -3.75144 3377 ft 159 kts 166°
2026-04-20 18:01 55.97369 -3.74842 3374 ft 160 kts 166°
2026-04-20 18:01 55.96273 -3.74537 3379 ft 160 kts 166°
2026-04-20 18:01 55.95176 -3.74235 3375 ft 159 kts 165°
2026-04-20 18:01 55.94085 -3.73941 3377 ft 158 kts 165°
2026-04-20 18:02 55.93009 -3.73649 3377 ft 158 kts 165°
2026-04-20 18:02 55.91924 -3.73349 3378 ft 158 kts 166°
2026-04-20 18:02 55.90839 -3.73053 3381 ft 157 kts 166°
2026-04-20 18:02 55.89756 -3.72754 3382 ft 157 kts 166°
2026-04-20 18:03 55.88673 -3.72457 3379 ft 158 kts 166°
2026-04-20 18:03 55.87589 -3.72162 3377 ft 158 kts 166°
2026-04-20 18:03 55.86511 -3.71867 3380 ft 156 kts 166°
2026-04-20 18:03 55.85433 -3.71574 3379 ft 157 kts 166°
2026-04-20 18:04 55.84353 -3.71279 3377 ft 157 kts 166°
2026-04-20 18:04 55.83277 -3.70985 3375 ft 156 kts 166°
2026-04-20 18:04 55.82204 -3.70692 3374 ft 156 kts 166°
2026-04-20 18:04 55.81128 -3.70399 3376 ft 156 kts 166°
2026-04-20 18:05 55.78998 -3.69820 3368 ft 155 kts 165°
2026-04-20 18:05 55.77928 -3.69528 3370 ft 155 kts 165°
2026-04-20 18:05 55.76859 -3.69238 3365 ft 155 kts 166°
2026-04-20 18:06 55.75789 -3.68947 3374 ft 156 kts 166°
2026-04-20 18:06 55.74716 -3.68655 3369 ft 156 kts 165°
2026-04-20 18:06 55.73643 -3.68364 3370 ft 155 kts 165°
2026-04-20 18:06 55.72578 -3.68075 3371 ft 155 kts 166°
2026-04-20 18:07 55.71487 -3.67779 3173 ft 160 kts 165°
2026-04-20 18:07 55.70377 -3.67482 2966 ft 162 kts 167°
2026-04-20 18:07 55.69256 -3.67178 2779 ft 162 kts 166°
2026-04-20 18:07 55.68152 -3.66879 2773 ft 159 kts 166°
2026-04-20 18:08 55.67065 -3.66586 2758 ft 157 kts 166°
2026-04-20 18:08 55.65989 -3.66290 2758 ft 156 kts 166°
2026-04-20 18:08 55.64920 -3.66003 2760 ft 155 kts 166°
2026-04-20 18:08 55.63855 -3.65718 2758 ft 155 kts 166°
2026-04-20 18:09 55.62786 -3.65427 2757 ft 155 kts 166°
2026-04-20 18:09 55.61733 -3.65143 2753 ft 155 kts 166°
2026-04-20 18:09 55.60672 -3.64858 2753 ft 153 kts 166°
2026-04-20 18:09 55.59611 -3.64574 2745 ft 153 kts 166°
2026-04-20 18:10 55.58562 -3.64287 2751 ft 154 kts 166°
2026-04-20 18:10 55.57499 -3.64000 2755 ft 155 kts 166°
2026-04-20 18:10 55.56433 -3.63716 2753 ft 154 kts 166°
2026-04-20 18:10 55.55371 -3.63430 2756 ft 155 kts 166°
2026-04-20 18:11 55.54310 -3.63144 2752 ft 154 kts 165°
2026-04-20 18:11 55.53243 -3.62858 2759 ft 158 kts 166°
2026-04-20 18:11 55.52153 -3.62564 2750 ft 158 kts 166°
2026-04-20 18:11 55.51081 -3.62280 2755 ft 155 kts 166°
2026-04-20 18:12 55.50024 -3.62003 2740 ft 155 kts 165°
2026-04-20 18:12 55.48980 -3.61718 2757 ft 151 kts 165°
2026-04-20 18:12 55.47939 -3.61435 2752 ft 151 kts 165°
2026-04-20 18:12 55.46904 -3.61160 2744 ft 149 kts 166°
2026-04-20 18:13 55.46211 -3.60974 2747 ft 150 kts 166°
2026-04-20 18:13 55.45192 -3.60702 2744 ft 149 kts 166°
2026-04-20 18:13 55.44164 -3.60425 2745 ft 149 kts 166°
2026-04-20 18:13 55.43134 -3.60151 2743 ft 149 kts 165°
2026-04-20 18:14 55.42109 -3.59876 2743 ft 149 kts 165°
2026-04-20 18:14 55.41079 -3.59601 2753 ft 150 kts 165°
2026-04-20 18:14 55.40034 -3.59321 2748 ft 152 kts 166°
2026-04-20 18:14 55.38983 -3.59044 2752 ft 152 kts 166°
2026-04-20 18:15 55.37937 -3.58757 2750 ft 152 kts 165°
2026-04-20 18:15 55.36899 -3.58492 2749 ft 148 kts 165°